Pula, Croatia

4:36 PM CET on March 23, 2017 (GMT +0100)
Pula

Weather History for LDPL - December, 2012

Change the Weather History Date:

Thursday, December 6, 2012

  Actual Average Record
Temperature  
Mean Temperature 43 °F -  
Max Temperature 51 °F - - ()
Min Temperature 35 °F - - ()
Degree Days  
Heating Degree Days 22    
Moisture  
Dew Point 29 °F    
Average Humidity 59    
Maximum Humidity 81    
Minimum Humidity 24    
Precipitation  
Precipitation 0.00 in - - ()
Sea Level Pressure  
Sea Level Pressure 29.78 in    
Wind  
Wind Speed 6 mph ()    
Max Wind Speed 14 mph    
Max Gust Speed -    
Visibility 6.2 miles    
Events      
T = Trace of Precipitation, MM = Missing Value Source: Averaged Metar Reports

Daily Weather History Graph

Daily Weather History Graph

Search for Another Location

Airport or City:

Trip Planner

Search our weather history database for the weather conditions in past years. The results will help you decide how hot, cold, wet, or windy it might be!

Date:

Astronomy

Dec. 06, 2012 Rise Set
Actual Time 7:27 AM CET 4:23 PM CET
Civil Twilight 6:54 AM CET 4:56 PM CET
Nautical Twilight 6:17 AM CET 5:33 PM CET
Astronomical Twilight 5:41 AM CET 6:08 PM CET
Moon No Moon Rise 11:57 AM CET (12/6)
Length of Visible Light 10h 02m
Length of Day
8h 55m
Waning Gibbous, 52% of the Moon is Illuminated
Dec 6
Waning Gibbous
Dec 6
Last Quarter
Dec 13
New
Dec 20
First Quarter
Dec 28
Full

Hourly Weather History & Observations

Time (CET) Temp. Windchill Dew Point Humidity Pressure Visibility Wind Dir Wind Speed Gust Speed Precip Events Conditions
12:00 AM 41.0 °F 37.1 °F 32.0 °F 70% 29.68 in - NNE 5.8 mph - N/A   Clear
12:30 AM 42.8 °F 38.6 °F 30.2 °F 61% 29.68 in - NNE 6.9 mph - N/A   Clear
1:00 AM 43 °F - 30 °F 48% 29.70 in 25 mi NE 8.9 mph - -   Overcast
1:00 AM 42.8 °F 37.5 °F 30.2 °F 61% 29.68 in - NE 9.2 mph - N/A   Clear
1:30 AM 42.8 °F 38.6 °F 28.4 °F 57% 29.68 in - NNE 6.9 mph - N/A   Clear
2:00 AM 42.8 °F 38.6 °F 28.4 °F 57% 29.68 in - NE 6.9 mph - N/A   Clear
2:30 AM 42.8 °F 39.3 °F 28.4 °F 57% 29.68 in - NE 5.8 mph - N/A   Clear
3:00 AM 42.8 °F - 26.6 °F 53% 29.68 in - Variable 2.3 mph - N/A   Clear
3:30 AM 42.8 °F 40.1 °F 26.6 °F 53% 29.68 in - North 4.6 mph - N/A   Clear
4:00 AM 38 °F - 28 °F 58% 29.72 in 25 mi WNW 6.7 mph - -   Overcast
4:00 AM 39.2 °F 35.0 °F 28.4 °F 65% 29.71 in - WNW 5.8 mph - N/A   Clear
4:30 AM 39.2 °F 35.9 °F 26.6 °F 61% 29.71 in - North 4.6 mph - N/A   Clear
5:00 AM 42 °F - 25 °F 38% 29.72 in 25 mi NNE 6.7 mph - -   Overcast
5:00 AM 41.0 °F 37.1 °F 24.8 °F 53% 29.71 in - NNE 5.8 mph - N/A   Clear
5:30 AM 41.0 °F 38.0 °F 28.4 °F 61% 29.71 in - NNE 4.6 mph - N/A   Clear
6:00 AM 41 °F - 30 °F 54% 29.74 in 25 mi North 6.7 mph - -   Partly Cloudy
6:00 AM 41.0 °F 38.0 °F 30.2 °F 65% 29.71 in - North 4.6 mph - N/A   Clear
6:30 AM 41.0 °F 38.0 °F 32.0 °F 70% 29.71 in - North 4.6 mph - N/A   Clear
7:00 AM 40 °F - 32 °F 65% 29.75 in 25 mi North 6.7 mph - -   Scattered Clouds
7:00 AM 39.2 °F 35.0 °F 32.0 °F 75% 29.74 in 6.2 mi North 5.8 mph - N/A   Partly Cloudy
7:30 AM 39.2 °F 35.9 °F 32.0 °F 75% 29.74 in 6.2 mi North 4.6 mph - N/A   Partly Cloudy
8:00 AM 39.2 °F 35.0 °F 32.0 °F 75% 29.74 in 6.2 mi North 5.8 mph - N/A   Partly Cloudy
8:30 AM 39.2 °F 35.0 °F 33.8 °F 81% 29.74 in 6.2 mi North 5.8 mph - N/A   Partly Cloudy
9:00 AM 41.0 °F 38.0 °F 33.8 °F 76% 29.74 in 6.2 mi NE 4.6 mph - N/A   Partly Cloudy
9:30 AM 42.8 °F 40.1 °F 33.8 °F 70% 29.77 in - NNE 4.6 mph - N/A   Clear
10:00 AM 45 °F - 34 °F 54% 29.79 in 25 mi NNE 6.7 mph - -   Clear
10:00 AM 44.6 °F 40.7 °F 33.8 °F 66% 29.77 in - NNE 6.9 mph - N/A   Clear
10:30 AM 46.4 °F 42.4 °F 30.2 °F 53% 29.77 in - NE 8.1 mph - N/A   Clear
11:00 AM 48.2 °F - 28.4 °F 46% 29.77 in - NNE 8.1 mph - N/A   Clear
11:30 AM 48.2 °F - 28.4 °F 46% 29.77 in - North 8.1 mph - N/A   Clear
12:00 PM 50.0 °F - 28.4 °F 43% 29.77 in - NNE 5.8 mph - N/A   Clear
12:30 PM 50.0 °F - 24.8 °F 37% 29.77 in - NE 6.9 mph - N/A   Clear
1:00 PM 50 °F - 25 °F 24% 29.79 in 25 mi NE 6.7 mph - -   Scattered Clouds
1:00 PM 50.0 °F - 24.8 °F 37% 29.77 in 6.2 mi NE 6.9 mph - N/A   Partly Cloudy
1:30 PM 50.0 °F - 28.4 °F 43% 29.77 in 6.2 mi East 5.8 mph - N/A   Partly Cloudy
2:00 PM 50.0 °F - 24.8 °F 37% 29.77 in 6.2 mi East 5.8 mph - N/A   Partly Cloudy
2:30 PM 50.0 °F - 23.0 °F 35% 29.77 in 6.2 mi Variable 1.2 mph - N/A   Partly Cloudy
3:00 PM 48.2 °F - 24.8 °F 40% 29.80 in - ESE 4.6 mph - N/A   Clear
3:30 PM 46.4 °F - 26.6 °F 46% 29.80 in - Variable 2.3 mph - N/A   Clear
4:00 PM 42 °F - 31 °F 53% 29.83 in 25 mi WSW 2.2 mph - -   Scattered Clouds
4:00 PM 42.8 °F - 30.2 °F 61% 29.80 in - Variable 2.3 mph - N/A   Clear
4:30 PM 41.0 °F 38.0 °F 30.2 °F 65% 29.83 in - NNW 4.6 mph - N/A   Clear
5:00 PM 39.2 °F - 30.2 °F 70% 29.83 in 6.2 mi Calm Calm - N/A   Partly Cloudy
5:30 PM 35.6 °F 31.7 °F 28.4 °F 75% 29.83 in - NNE 4.6 mph - N/A   Clear
6:00 PM 39.2 °F 35.9 °F 32.0 °F 75% 29.83 in - NNE 4.6 mph - N/A   Clear
6:30 PM 37.4 °F 33.8 °F 30.2 °F 75% 29.86 in - North 4.6 mph - N/A   Clear
7:00 PM 38 °F - 31 °F 66% 29.88 in 25 mi NNE 6.7 mph - -  
7:00 PM 37.4 °F 32.8 °F 30.2 °F 75% 29.86 in - NNE 5.8 mph - N/A   Clear
7:30 PM 39.2 °F 35.0 °F 30.2 °F 70% 29.86 in - NNE 5.8 mph - N/A   Clear
8:00 PM 37.4 °F 33.8 °F 28.4 °F 70% 29.89 in - NNE 4.6 mph - N/A   Clear
8:30 PM 39.2 °F 35.0 °F 30.2 °F 70% 29.89 in - NE 5.8 mph - N/A   Clear
9:00 PM 39.2 °F 33.6 °F 30.2 °F 70% 29.89 in - NE 8.1 mph - N/A   Clear
9:30 PM 41.0 °F 35.2 °F 30.2 °F 65% 29.89 in - NE 9.2 mph - N/A   Clear
10:00 PM 40 °F - 29 °F 54% 29.92 in 25 mi Calm Calm - -   Scattered Clouds
10:00 PM 41.0 °F 37.1 °F 28.4 °F 61% 29.89 in - NE 5.8 mph - N/A   Clear
10:30 PM 41.0 °F 35.8 °F 28.4 °F 61% 29.89 in - NE 8.1 mph - N/A   Clear
11:00 PM 42.8 °F 36.2 °F 26.6 °F 53% 29.92 in - ENE 12.7 mph - N/A   Clear
11:30 PM 41.0 °F 33.5 °F 28.4 °F 61% 29.92 in - NE 13.8 mph - N/A   Clear